BMCB-34 Weather Reports


time (UTC)temp
F
wind
direction
speed
knots
gust
knots
rain 1hr
in
rain 24hr
in
rain mn
in
humidity
%
barometer
mb
20260502200035 61 0 0.0 0.0 0.00 0.00 0.00 58 1010.0
20260502195032 62 0 0.0 0.0 0.00 0.00 0.00 58 1009.9
20260502194035 62 0 0.0 0.0 0.00 0.00 0.00 58 1009.8
20260502193036 62 0 0.0 0.0 0.00 0.00 0.00 58 1009.8
20260502192032 63 0 0.0 0.0 0.00 0.00 0.00 57 1009.7
20260502191033 64 0 0.0 0.0 0.00 0.00 0.00 57 1009.6
20260502185033 65 0 0.0 0.0 0.00 0.00 0.00 56 1009.5
20260502183034 68 0 0.0 0.0 0.00 0.00 0.00 53 1009.4
20260502181037 71 0 0.0 0.0 0.00 0.00 0.00 48 1009.4
20260502164022 77 0 0.0 0.0 0.00 0.00 0.00 33 1009.6
20260502163020 77 0 0.0 0.0 0.00 0.00 0.00 32 1009.6
20260502152023 77 0 0.0 0.0 0.00 0.00 0.00 33 1010.4
20260502151024 77 0 0.0 0.0 0.00 0.00 0.00 35 1010.6
20260502123017 75 0 0.0 0.0 0.00 0.00 0.00 52 1012.6
20260502121022 75 0 0.0 0.0 0.00 0.00 0.00 53 1012.8
20260502115022 73 0 0.0 0.0 0.00 0.00 0.00 55 1013.3
20260502114024 73 0 0.0 0.0 0.00 0.00 0.00 55 1013.4
20260502113023 73 0 0.0 0.0 0.00 0.00 0.00 55 1013.5
20260502112020 73 0 0.0 0.0 0.00 0.00 0.00 55 1013.7
20260502111022 72 0 0.0 0.0 0.00 0.00 0.00 56 1013.9
20260502110023 71 0 0.0 0.0 0.00 0.00 0.00 56 1014.0
20260502105025 71 0 0.0 0.0 0.00 0.00 0.00 56 1014.0
20260502104021 71 0 0.0 0.0 0.00 0.00 0.00 56 1014.2
20260502103027 70 0 0.0 0.0 0.00 0.00 0.00 57 1014.4
20260502102023 69 0 0.0 0.0 0.00 0.00 0.00 57 1014.5
20260502101026 68 0 0.0 0.0 0.00 0.00 0.00 57 1014.6
20260502091024 65 0 0.0 0.0 0.00 0.00 0.00 58 1015.2
20260502070033 54 0 0.0 0.0 0.00 0.00 0.00 67 1016.5
20260502065030 53 0 0.0 0.0 0.00 0.00 0.00 68 1016.5
20260502064033 53 0 0.0 0.0 0.00 0.00 0.00 69 1016.4
20260502063023 53 0 0.0 0.0 0.00 0.00 0.00 69 1016.4
20260502062029 53 0 0.0 0.0 0.00 0.00 0.00 68 1016.4
20260502061024 53 0 0.0 0.0 0.00 0.00 0.00 68 1016.4
20260502060045 53 0 0.0 0.0 0.00 0.00 0.00 68 1016.4
20260502060028 54 0 0.0 0.0 0.00 0.00 0.00 67 1016.5
20260502055031 54 0 0.0 0.0 0.00 0.00 0.00 67 1016.5
20260502055022 52 0 0.0 0.0 0.00 0.00 0.00 70 1016.6
20260502054023 51 0 0.0 0.0 0.00 0.00 0.00 72 1016.8
20260502053024 50 0 0.0 0.0 0.00 0.00 0.00 74 1016.8
20260502052036 50 0 0.0 0.0 0.00 0.00 0.00 74 1016.8
20260502052031 50 0 0.0 0.0 0.00 0.00 0.00 75 1016.8
20260502050036 49 0 0.0 0.0 0.00 0.00 0.00 76 1016.7
20260502050029 48 0 0.0 0.0 0.00 0.00 0.00 77 1016.7
20260502045023 48 0 0.0 0.0 0.00 0.00 0.00 78 1016.6
20260502044026 48 0 0.0 0.0 0.00 0.00 0.00 78 1016.6
20260502044024 47 0 0.0 0.0 0.00 0.00 0.00 78 1016.6
20260502043037 47 0 0.0 0.0 0.00 0.00 0.00 78 1016.6
20260502043031 47 0 0.0 0.0 0.00 0.00 0.00 78 1016.5
20260502042033 47 0 0.0 0.0 0.00 0.00 0.00 78 1016.5
20260502042028 47 0 0.0 0.0 0.00 0.00 0.00 77 1016.5
20260502041035 47 0 0.0 0.0 0.00 0.00 0.00 77 1016.5
20260502041028 48 0 0.0 0.0 0.00 0.00 0.00 76 1016.4
20260502040034 48 0 0.0 0.0 0.00 0.00 0.00 76 1016.4
20260502040027 48 0 0.0 0.0 0.00 0.00 0.00 75 1016.4
20260502035029 48 0 0.0 0.0 0.00 0.00 0.00 74 1016.4
20260502034032 48 0 0.0 0.0 0.00 0.00 0.00 74 1016.4
20260502034028 48 0 0.0 0.0 0.00 0.00 0.00 74 1016.5
20260502033024 48 0 0.0 0.0 0.00 0.00 0.00 74 1016.5
20260502031024 48 0 0.0 0.0 0.00 0.00 0.00 74 1016.7
20260502030038 48 0 0.0 0.0 0.00 0.00 0.00 74 1016.7
20260502030032 48 0 0.0 0.0 0.00 0.00 0.00 76 1016.8
20260502025036 48 0 0.0 0.0 0.00 0.00 0.00 76 1016.8
20260502025029 47 0 0.0 0.0 0.00 0.00 0.00 76 1016.6
20260502024031 47 0 0.0 0.0 0.00 0.00 0.00 76 1016.6
20260502024025 48 0 0.0 0.0 0.00 0.00 0.00 76 1016.6
20260502023034 48 0 0.0 0.0 0.00 0.00 0.00 76 1016.6
20260502023028 48 0 0.0 0.0 0.00 0.00 0.00 74 1016.7
20260502022033 48 0 0.0 0.0 0.00 0.00 0.00 74 1016.7
20260502022027 48 0 0.0 0.0 0.00 0.00 0.00 74 1016.6
20260502021039 48 0 0.0 0.0 0.00 0.00 0.00 73 1016.6
20260502020031 49 0 0.0 0.0 0.00 0.00 0.00 72 1016.6
20260502015038 49 0 0.0 0.0 0.00 0.00 0.00 72 1016.6
20260502015032 48 0 0.0 0.0 0.00 0.00 0.00 73 1016.6
20260502014030 48 0 0.0 0.0 0.00 0.00 0.00 73 1016.6
20260502014024 49 0 0.0 0.0 0.00 0.00 0.00 72 1016.7
20260502013036 49 0 0.0 0.0 0.00 0.00 0.00 72 1016.7
20260502013031 49 0 0.0 0.0 0.00 0.00 0.00 72 1016.8
20260502012022 49 0 0.0 0.0 0.00 0.00 0.00 71 1016.8
20260502011032 49 0 0.0 0.0 0.00 0.00 0.00 71 1016.8
20260502011026 49 0 0.0 0.0 0.00 0.00 0.00 72 1016.8
20260502010029 50 0 0.0 0.0 0.00 0.00 0.00 71 1016.8
20260502005036 50 0 0.0 0.0 0.00 0.00 0.00 71 1016.8
20260502005030 50 0 0.0 0.0 0.00 0.00 0.00 71 1016.9
20260502004023 50 0 0.0 0.0 0.00 0.00 0.00 71 1016.9
20260502003026 50 0 0.0 0.0 0.00 0.00 0.00 71 1016.9
20260502002030 50 0 0.0 0.0 0.00 0.00 0.00 71 1016.9
20260502001037 50 0 0.0 0.0 0.00 0.00 0.00 71 1016.9
20260502001032 50 0 0.0 0.0 0.00 0.00 0.00 71 1017.0
20260502000027 50 0 0.0 0.0 0.00 0.00 0.00 72 1017.0
20260501235044 50 0 0.0 0.0 0.00 0.00 0.00 72 1017.0
20260501235035 50 0 0.0 0.0 0.00 0.00 0.00 71 1017.1
20260501234029 50 0 0.0 0.0 0.00 0.00 0.00 71 1017.1
20260501234023 51 0 0.0 0.0 0.00 0.00 0.00 69 1017.1
20260501233038 51 0 0.0 0.0 0.00 0.00 0.00 69 1017.1
20260501233031 51 0 0.0 0.0 0.00 0.00 0.00 67 1017.2
20260501232030 51 0 0.0 0.0 0.00 0.00 0.00 67 1017.2
20260501231038 51 0 0.0 0.0 0.00 0.00 0.00 67 1017.2
20260501231029 51 0 0.0 0.0 0.00 0.00 0.00 66 1017.2
20260501230036 51 0 0.0 0.0 0.00 0.00 0.00 66 1017.2
20260501230030 51 0 0.0 0.0 0.00 0.00 0.00 67 1017.2
20260501225034 51 0 0.0 0.0 0.00 0.00 0.00 67 1017.2
20260501225026 51 0 0.0 0.0 0.00 0.00 0.00 66 1017.3
20260501224025 51 0 0.0 0.0 0.00 0.00 0.00 66 1017.3
20260501223033 51 0 0.0 0.0 0.00 0.00 0.00 66 1017.4
20260501222039 51 0 0.0 0.0 0.00 0.00 0.00 66 1017.4
20260501222030 52 0 0.0 0.0 0.00 0.00 0.00 65 1017.4
20260501221038 52 0 0.0 0.0 0.00 0.00 0.00 65 1017.4
20260501221031 52 0 0.0 0.0 0.00 0.00 0.00 64 1017.4
20260501220036 52 0 0.0 0.0 0.00 0.00 0.00 64 1017.4
20260501215039 53 0 0.0 0.0 0.00 0.00 0.00 64 1017.4
20260501215033 53 0 0.0 0.0 0.00 0.00 0.00 62 1017.5
20260501214041 53 0 0.0 0.0 0.00 0.00 0.00 62 1017.5
20260501214034 54 0 0.0 0.0 0.00 0.00 0.00 61 1017.4
20260501213047 54 0 0.0 0.0 0.00 0.00 0.00 61 1017.4
20260501213038 54 0 0.0 0.0 0.00 0.00 0.00 61 1017.3
20260501212041 54 0 0.0 0.0 0.00 0.00 0.00 61 1017.3
20260501212034 54 0 0.0 0.0 0.00 0.00 0.00 60 1017.3
20260501211043 54 0 0.0 0.0 0.00 0.00 0.00 60 1017.3
20260501211034 55 0 0.0 0.0 0.00 0.00 0.00 60 1017.3
20260501210042 55 0 0.0 0.0 0.00 0.00 0.00 58 1017.3
20260501205047 55 0 0.0 0.0 0.00 0.00 0.00 58 1017.3
20260501205038 55 0 0.0 0.0 0.00 0.00 0.00 58 1017.2
20260501204043 56 0 0.0 0.0 0.00 0.00 0.00 57 1017.0
20260501203035 56 0 0.0 0.0 0.00 0.00 0.00 56 1017.0
20260501202046 56 0 0.0 0.0 0.00 0.00 0.00 56 1017.0
20260501202039 56 0 0.0 0.0 0.00 0.00 0.00 57 1017.0
20260501201045 56 0 0.0 0.0 0.00 0.00 0.00 57 1017.0
20260501201036 57 0 0.0 0.0 0.00 0.00 0.00 55 1017.0